This is the latest recevied weather packets stored in our database for station/object N5RPG. If no packets are shown the sender has not sent any weather packets the latest 10 day(s).
| Time | Temp. | Humidity | Pressure | Rain* | Wind** | Luminosity | Snow |
|---|---|---|---|---|---|---|---|
| 1777900686 | 16.67° C | 77% | 1016.7 hPa | 0 mm | - | 232 W/m² | - |
| 1777900383 | 16.11° C | 78% | 1016.5 hPa | 0 mm | - | 199 W/m² | - |
| 1777900080 | 15.56° C | 79% | 1016.7 hPa | 0 mm | - | 184 W/m² | - |
| 1777899776 | 15.56° C | 80% | 1016.8 hPa | 0 mm | - | 175 W/m² | - |
| 1777899472 | 15° C | 81% | 1016.7 hPa | 0 mm | - | 145 W/m² | - |
| 1777899171 | 14.44° C | 84% | 1016.7 hPa | 0 mm | - | 141 W/m² | - |
| 1777898868 | 13.89° C | 85% | 1016.8 hPa | 0 mm | - | 63 W/m² | - |
| 1777898565 | 13.89° C | 86% | 1016.8 hPa | 0 mm | - | 51 W/m² | - |
| 1777898262 | 13.89° C | 87% | 1016.6 hPa | 0 mm | - | 49 W/m² | - |
| 1777897960 | 13.33° C | 88% | 1016.7 hPa | 0 mm | - | 46 W/m² | - |
| 1777897655 | 13.33° C | 88% | 1016.6 hPa | 0 mm | - | 44 W/m² | - |
| 1777897352 | 12.78° C | 89% | 1016.5 hPa | 0 mm | - | 41 W/m² | - |
| 1777897048 | 12.78° C | 90% | 1016.7 hPa | 0 mm | - | 38 W/m² | - |
| 1777896745 | 12.78° C | 90% | 1016.4 hPa | 0 mm | - | 36 W/m² | - |
| 1777896442 | 12.78° C | 91% | 1016.4 hPa | 0 mm | - | 33 W/m² | - |
| 1777896139 | 12.78° C | 91% | 1016.3 hPa | 0 mm | - | 29 W/m² | - |
| 1777895837 | 12.22° C | 91% | 1016.4 hPa | 0 mm | - | 26 W/m² | - |
| 1777895534 | 12.22° C | 91% | 1016.4 hPa | 0 mm | - | 22 W/m² | - |
| 1777895232 | 12.22° C | 91% | 1016.4 hPa | 0 mm | - | 18 W/m² | - |
| 1777894929 | 12.22° C | 91% | 1016.3 hPa | 0 mm | - | 13 W/m² | - |
| 1777894627 | 12.22° C | 92% | 1016.3 hPa | 0 mm | - | 9 W/m² | - |
| 1777894323 | 12.22° C | 92% | 1016.1 hPa | 0 mm | - | 6 W/m² | - |
| 1777894021 | 12.22° C | 92% | 1016.1 hPa | 0 mm | - | 3 W/m² | - |
| 1777893717 | 12.22° C | 93% | 1016.3 hPa | 0 mm | - | 1 W/m² | - |
| 1777893413 | 12.22° C | 93% | 1016.2 hPa | 0 mm | - | 1 W/m² | - |
* Rain latest hour (hover to see other rain measurements)
** Current wind speed in m/s (hover to see current wind gust speed)